Flag for USA

Past Weather in Newport, Vermont, USA — Yesterday and Last 2 Weeks

Now
69 °F

Mild.


Feels Like: 69 °F
Forecast: 74 / 60 °F
Wind: 8 mph from South

Location: Frelighsburg
Current Time: Sep 27, 2020 at 10:58:29 am
Latest Report: Sep 27, 2020 at 10:00 am
Visibility: N/A
Pressure29.89 "Hg
Humidity: 78%
Dew Point: 62 °F
Location of NewportLocation

Past Weather in Newport — Graph

°F

Newport Temperature Yesterday

Maximum temperature yesterday: 78 °F (at 3:00 pm)
Minimum temperature yesterday: 56 °F (at 2:00 am)
Average temperature yesterday: 67 °F

High & Low Weather Summary for the Past Weeks

 TemperatureHumidityPressure
High78 °F (Sep 26, 3:00 pm)100% (Sep 17, 7:00 am)30.63 "Hg (Sep 17, 7:00 am)
Low35 °F (Sep 19, 5:00 am)36% (Sep 21, 3:00 pm)29.75 "Hg (Sep 23, 4:00 pm)
Average54 °F71%30.13 "Hg
* Reported Sep 12 9:00 am — Sep 27 9:00 am, Newport. Weather by CustomWeather, © 2020

Note: Actual official high and low records may vary slightly from our data, if they occured in-between our weather recording intervals... More about our weather records

Newport Weather History for the Previous 24 Hours

Scroll right to see more
 ConditionsComfort  
Time TempWeatherWind HumidityBarometerVisibility
9:00 am
Sun, Sep 27
68 °FMild.7 mph82%29.89 "HgN/A
8:00 am67 °FMild.6 mph78%29.90 "HgN/A
7:00 am65 °FMild.7 mph86%29.90 "HgN/A
6:00 am65 °FMild.6 mph84%29.89 "HgN/A
5:00 am67 °FMild.7 mph81%29.89 "HgN/A
4:00 am65 °FMild.7 mph85%29.90 "HgN/A
3:00 am68 °FMild.8 mph78%29.90 "HgN/A
2:00 am67 °FMild.6 mph78%29.92 "HgN/A
1:00 am68 °FMild.6 mph75%29.92 "HgN/A
12:00 am67 °FMild.6 mph75%29.93 "HgN/A
11:00 pm
Sat, Sep 26
67 °FMild.7 mph71%29.93 "HgN/A
10:00 pm69 °FMild.7 mph65%29.93 "HgN/A
9:00 pm68 °FMild.6 mph59%29.94 "HgN/A
8:00 pm69 °FMild.7 mph54%29.93 "HgN/A
7:00 pm70 °FMild.6 mph48%29.92 "HgN/A
6:00 pm72 °FMild.3 mph46%29.93 "HgN/A
5:00 pm75 °FMild.6 mph44%29.92 "HgN/A
4:00 pm78 °FWarm.7 mph43%29.92 "HgN/A
3:00 pm78 °FWarm.5 mph47%29.94 "HgN/A
2:00 pm77 °FWarm.7 mph45%29.95 "HgN/A
1:00 pm77 °FMild.6 mph52%29.98 "HgN/A
12:00 pm74 °FMild.6 mph54%30.00 "HgN/A
11:00 am72 °FMild.6 mph65%30.01 "HgN/A
10:00 am68 °FMild.5 mph70%30.03 "HgN/A
Weather by CustomWeather, © 2020

See weather overview